www.pogodaiklimat.ru

Погода и климат >> Архив погоды >> Аргентина >> San Fernando del Valle de Catamarca


ПОГОДА в San Fernando del Valle de Catamarca

  • Прогноз погоды в San Fernando del Valle de Catamarca
  • Монитор погоды в San Fernando del Valle de Catamarca
  • Климат города

АРХИВ ПОГОДЫ в San Fernando del Valle de Catamarca

Время (UTC), дата Ветер
(напр.,м/с)
 
Видим.   Явления Облачность Т
(С)
Тd
(С)
f
(%)
Тe
(С)
Тes
(С)
Комфортность P
(гПа)
Po
(гПа)
Тmin
(С)
Tmax
(С)
R
(мм)
R24
(мм)
S
(см)
06 16.01 С 8 20 км ясно +25.7 +14.1 49 +28 +28 жарко 1005.4 955.4
09 16.01 С 8 20 км 1/0
[Ac cast]
+24.3 +14.7 55 +27 +27 жарко 1006.0 955.8
12 16.01 С 9 20 км ясно +27.5 +14.4 45 +30 +31 жарко 1007.8 957.4 +24.4 +29.0
15 16.01 С 10 20 км 3/3 1500 м
[Sc]
+33.3 +15.8 35 +36 +36 очень
душно
1006.4 956.6
18 16.01 С 10 20 км 5/5 1500 м
[Sc]
+34.7 +15.3 31 +36 +37 душно 1004.7 955.0
21 16.01 С 10 20 км 5/5 1200 м
[Sc]
+34.3 +15.1 32 +36 +36 душно 1002.6 952.8
00 17.01 С 6 15 км осадки на расстоянии 8/3 1500 м
[Sc diur, vesp Ac As]
+29.5 +15.3 42 +32 +32 душно 1004.7 954.6 +26.4 +35.6
03 17.01 С 8 20 км 5/5 1350 м
[Frnb]
+27.7 +16.6 51 +31 +31 душно 1006.7 956.9
06 17.01 С 7 20 км ясно +27.3 +14.6 46 +30 +30 душно 1004.9 955.3
09 17.01 СВ 6 20 км 3/0
[Ac As]
+24.7 +14.4 53 +27 +27 жарко 1004.9 955.0
12 17.01 Ю 4 20 км 9/3 2000 м
[Sc Ac As Cc]
+26.3 +15.3 51 +29 +31 жарко 1009.1 958.8 +23.7 +29.5
15 17.01 З 4 20 км 10/10 2000 м
[Sc]
+27.1 +15.1 48 +30 +30 душно 1010.2 959.7
18 17.01 Ю 5 20 км 10/10 900 м
[St]
+22.4 +16.7 70 +27 +27 душно 1011.8 960.8
21 17.01 Ю 3 20 км 9/9 900 м
[St]
+23.7 +16.9 66 +27 +28 жарко 1009.7 958.6
00 18.01 С 2 20 км 8/3 1500 м
[Sc Ac As]
+22.7 +15.8 65 +27 +27 душно 1010.1 959.2 +22.4 +35.5
03 18.01 штиль 0 20 км 6/0
[Ac As]
+20.5 +17.5 83 +24 +24 комфорт 1012.0 960.8
06 18.01 С 2 20 км 4/0
[Ac As]
+18.9 +16.8 88 +21 +21 комфорт 1012.3 960.6
09 18.01 СВ 1 20 км 9/5 1500 м
[Sc Ac As]
+18.0 +16.4 90 +19 +19 1013.1 961.4
12 18.01 С 4 20 км 4/0
[Ac trans]
+23.2 +17.2 69 +28 +32 душно 1014.1 962.6 +18.0 +24.2
15 18.01 ЮВ 3 20 км 4/3 1500 м
[Sc diur, vesp Ac trans]
+30.3 +15.7 41 +33 +44 душно 1012.5 961.6
18 18.01 З 2 20 км 5/3 1500 м
[Sc Ac cuf]
+31.9 +12.4 30 +32 +43 жарко 1009.7 958.9
21 18.01 В 7 20 км 6/6 1500 м
[Sc]
+31.9 +9.5 25 +31 +32 жарко 1007.6 956.9
00 19.01 С 4 20 км 3/0
[Ac und]
+27.5 +12.8 40 +29 +29 жарко 1009.2 958.4 +23.2 +34.5
03 19.01 С 6 20 км 5/0
[Cs]
+25.3 +17.0 60 +29 +29 душно 1011.3 960.8
06 19.01 С 4 20 км 9/0
[Ac As]
+24.9 +16.5 60 +28 +28 жарко 1010.7 960.4
09 19.01 С 5 20 км 9/5 1500 м
[Sc Ac As]
+24.1 +16.3 62 +28 +28 душно 1011.0 960.6
12 19.01 С 6 20 км 8/0
[Ac As Cs]
+25.7 +15.7 54 +29 +30 душно 1012.2 961.4 +22.4 +28.0
15 19.01 С 3 20 км 4/1 1500 м
[Sc diur, vesp Ac As Cs]
+30.9 +11.9 31 +31 +45 жарко 1010.9 960.5
18 19.01 В 3 20 км 8/6 1350 м
[Sc diur, vesp Ac As Cs]
+33.5 +13.5 30 +34 +40 очень
жарко
1008.0 957.8
21 19.01 С 8 20 км 8/6 1350 м
[Sc Cs]
+31.7 +10.2 27 +31 +32 жарко 1006.3 956.1
00 20.01 С 7 20 км 9/5 1200 м
[Sc Ac As Cs]
+29.3 +11.8 34 +30 +30 жарко 1007.4 957.0 +25.8 +34.5
03 20.01 СВ 8 20 км 10/6 1200 м
[Sc Ac As]
+27.3 +13.7 43 +29 +29 жарко 1008.0 957.8
06 20.01 штиль 0 20 км 6/6 1200 м
[Sc]
+24.5 +14.6 54 +27 +27 жарко 1007.9 957.8
09 20.01 СЗ 2 20 км 9/9 1200 м
[Sc]
+21.7 +15.7 69 +25 +25 комфорт 1007.8 957.3
12 20.01 Ю 4 20 км 6/5 1350 м
[Sc Ac As]
+23.7 +15.1 59 +27 +28 жарко 1010.4 959.8 +20.4 +29.5
15 20.01 С 3 20 км 4/3 1350 м
[Sc Cs]
+29.5 +14.2 39 +31 +43 жарко 1008.2 958.0
18 20.01 С 8 20 км 5/5 1350 м
[Sc diur, vesp]
+32.3 +14.4 34 +34 +35 душно 1005.1 955.0
21 20.01 С 8 20 км 4/4 1350 м
[Sc diur, vesp]
+30.5 +10.8 30 +31 +31 жарко 1003.8 953.4
00 21.01 С 6 20 км 1/1 1500 м
[Sc diur, vesp]
+26.4 +12.3 42 +28 +28 жарко 1005.1 954.5 +23.7 +33.5
03 21.01 С 7 20 км ясно +24.4 +12.6 48 +26 +26 жарко 1005.9 955.6
06 21.01 С 7 20 км ясно +23.4 +13.2 53 +27 +27 душно 1004.4 954.3
09 21.01 С 3 20 км ясно +21.9 +14.5 63 +25 +25 комфорт 1004.6 954.2
12 21.01 С 4 20 км ясно +24.5 +13.8 51 +27 +30 жарко 1005.8 955.2 +20.8 +26.9
15 21.01 С 3 20 км 1/1 1500 м
[Sc diur, vesp]
+31.5 +14.1 35 +33 +49 жарко 1003.5 953.4
18 21.01 ЮВ 6 20 км 5/5 1350 м
[Sc diur, vesp]
+34.3 +14.3 30 +35 +39 очень
жарко
1000.0 950.2
21 21.01 С 9 20 км 5/5 1350 м
[Sc diur, vesp]
+33.5 +14.0 31 +35 +35 душно 998.2 948.4
00 22.01 С 6 20 км 3/3 1500 м
[Sc diur, vesp]
+30.1 +15.5 41 +33 +33 душно 1000.5 950.5 +24.5 +35.6
03 22.01 С 6 20 км зарница 3/1 1500 м
[Cb cap Cs]
+27.1 +15.5 49 +30 +30 душно 1001.5 951.8
06 22.01 С 5 20 км зарница 1/1 1500 м
[Cb cap]
+25.3 +15.9 56 +29 +29 душно 1000.3 950.6
09 22.01 Ю 6 20 км 3/0
[Ac As]
+21.7 +14.6 64 +25 +25 комфорт 1004.4 954.2
12 22.01 С 3 20 км 5/1 1500 м
[Cu med, cong Ac As]
+24.1 +14.9 56 +27 +30 жарко 1005.2 954.9 +20.4 +30.2
15 22.01 СВ 5 20 км 1/1 1500 м
[Cu med, cong]
+31.3 +18.6 47 +36 +45 очень
душно
1001.3 951.6
18 22.01 СЗ 2 20 км 4/4 1500 м
[Cu med, cong]
+36.3 +18.4 35 +40 +51 опасность
солнечного
удара
997.4 948.1
21 22.01 С 9 20 км 4/4 1500 м
[Cu med, cong]
+35.5 +18.0 36 +39 +40 очень
душно
996.2 946.6
00 23.01 С 7 20 км 1/1 1500 м
[Cu med, cong]
+31.3 +16.3 41 +34 +34 душно 998.1 948.2 +24.1 +37.0

 

Местоположение метеостанции San Fernando del Valle de Catamarca (Аргентина): широта -28.60 долгота -65.76 высота над уровнем моря 454 м.

В архиве по умолчанию представлена погода в San Fernando del Valle de Catamarca за последнюю неделю. Архивные данные за месяц целиком и за предыдущие месяцы, начиная с января 2011 года, Вы можете получить, выбрав интересующий диапазон дат из раскрывающегося списка и нажав кнопку "Ввод!".

Внимание! Время в таблицах - всемирное. Для получения местного времени необходимо прибавить поправку, которая в San Fernando del Valle de Catamarca равна -3 ч.

Смотрите также архив погоды в соседних городах и на ближайших метеорологических станциях:

Погода в La Rioja (Аргентина) (134 км)
Погода в Santiago del Estero (Аргентина) (171 км)
Погода в Chamical (Аргентина) (202 км)
Погода в San Miguel de Tucuman (Аргентина) (206 км)
Погода в Villa de Maria del Rio Seco (Аргентина) (248 км)
Погода в Cordoba (Аргентина) (336 км)
Погода в Villa Dolores (Аргентина) (377 км)
Погода в Pilar (Аргентина) (385 км)
Погода в Ceres (Аргентина) (396 км)
Погода в San Juan (Аргентина) (403 км)

Пояснения к столбцам:

Ветер - указаны скорость ветра в м/с - средняя за 10 мин, порывы в срок и между сроками (в фигурных скобках) и направление, откуда дует ветер: С - северный, СВ - северо-восточный, В - восточный, ЮВ - юго-восточный, Ю - южный, ЮЗ - юго-западный, З - западный, СЗ - северо-западный.
Видимость - горизонтальная дальность видимости в метрах или километрах. При видимости от 1 до 10 км при отсутствии осадков обычно наблюдается дымка, при ухудшении видимости до 1 км и менее - туман. В сухую погоду видимость может ухудшаться дымом, пылью или мглою.
Явления - указаны атмосферные явления, наблюдавшиеся в срок или в последний час перед сроком; фигурными скобками обозначены явления, наблюдавшиеся между сроками (за 1-3 часа до срока); квадратными скобками обозначены град или гололедные отложения с указанием их диаметра в мм.
Облачность - указаны через наклонную черту общая и нижняя облачность в баллах и высота нижней границы облаков в метрах; квадратными скобками обозначены формы облаков: Ci - перистые, Cs - перисто-слоистые, Cc - перисто-кучевые, Ac - высококучевые, As - высокослоистые, Sc - слоисто-кучевые, Ns - слоисто-дождевые, Cu - кучевые, Cb - кучево-дождевые. Подробнее классификацию облаков см. в Атласе облаков (PDF).
T - Температура воздуха - температура, измеренная на высоте 2 м над землей.
Td - Температура точки росы - температура, при понижении до которой содержащийся в воздухе водяной пар достигнет насыщения.
f - Относительная влажность воздуха - влажноcть воздуха, измеренная на высоте 2 м над землей.
Te - Эффективная температура - температура, которую ощущает одетый по сезону человек в тени. Характеристика душности погоды. При расчете учитывается влияние влажности воздуха и скорости ветра на теплоощущения человека.
Tes - Эффективная температура на солнце - температура, которую ощущает человек, с поправкой на солнечный нагрев. Характеристика знойности погоды. Зависит от высоты солнца над горизонтом, облачности и скорости ветра. Ночью, в пасмурную погоду, а также при ветре 12 м/с и более поправка равна нулю.
P - Атмосферное давление - приведенное к уровню моря атмосферное давление.
Po - Атмосферное давление - измеренное на уровне метеостанции атмосферное давление.
Tmin - Минимальная температура - минимум температуры воздуха на высоте 2 м над землей.
Tmax - Максимальная температура - максимум температуры воздуха на высоте 2 м над землей.
R - Количество осадков - Количество выпавших осадков за период времени, мм. При наведении курсора мыши на число - период времени, за который выпало указанное количество осадков.
R24 - Количество осадков - Количество выпавших осадков за 24 часа, мм.
S - Снежный покров - Высота снежного покрова, см. При наведении курсора мыши на число - состояние снежного покрова и степень покрытия местности в баллах.